Vorticity
5 6 6 5 5 5 5 6 6 5 4 2 2 2 1 1 -0 -1 -1 -1 -1 -1 -1 -0 -0 -0 -0 1 2 3 4 5 7 8 9 9 9 8 6 5 5 5 5 6 6 6 6 6 5 5 5 5 5 5 6 6 6 6 6 6 6 6 5 5 5 5 5 5 5
5 5 4 4 4 5 5 6 6 5 4 3 2 2 1 1 -0 -1 -1 -1 -0 -1 -1 -1 -0 0 0 1 2 4 5 6 8 9 10 10 9 7 6 5 5 5 5 6 6 6 6 6 5 5 5 5 5 6 6 6 6 6 6 6 6 5 5 5 5 5 5 5 5
4 4 4 4 4 6 6 6 5 4 3 3 2 2 1 1 -0 -1 -1 -1 -1 -0 -0 -0 0 1 1 2 4 5 6 8 9 10 10 9 8 7 6 5 5 5 5 6 6 6 6 5 5 5 6 6 6 6 6 6 6 6 6 6 6 5 5 5 5 5 5 5 6
5 4 5 5 6 7 6 5 4 3 3 2 2 2 2 1 0 -0 -1 -1 -0 0 0 0 0 1 2 3 5 6 8 9 10 10 10 9 7 6 5 4 5 5 6 6 6 6 6 5 6 6 6 6 6 6 6 6 6 6 6 6 5 5 5 5 5 5 5 5 6
6 6 6 6 6 6 5 4 4 3 3 2 2 2 1 0 -0 -0 -0 0 1 1 1 0 1 2 3 5 6 7 8 10 10 10 9 8 6 5 4 4 4 5 6 6 6 6 6 6 6 6 6 6 6 6 6 6 6 6 6 5 5 5 5 5 5 5 5 6 6
5 5 6 6 6 5 5 5 5 4 3 2 2 1 1 0 0 0 1 1 1 1 1 2 2 4 5 6 7 8 9 10 11 10 8 7 5 4 4 4 5 5 6 6 6 6 6 6 6 6 6 6 6 6 6 6 6 6 5 5 5 5 5 5 5 5 5 6 7
4 4 4 5 5 5 5 5 5 4 3 3 2 1 0 0 1 1 1 1 1 1 2 3 4 5 6 7 8 9 10 11 10 9 7 6 4 4 4 4 5 6 6 6 6 6 6 6 6 6 7 7 7 7 6 6 6 5 5 5 5 5 5 5 5 6 6 7 7
5 5 5 5 6 6 6 5 4 4 3 3 2 1 0 0 1 1 1 2 2 3 3 4 5 6 7 7 9 10 10 10 9 8 6 5 4 4 4 4 5 6 6 6 6 6 6 6 7 7 7 7 7 7 6 6 6 5 5 5 5 5 5 6 6 6 7 7 8
6 6 6 6 6 6 6 6 5 4 3 3 2 2 1 1 2 2 2 3 3 4 5 6 6 6 7 8 10 10 10 9 8 6 5 4 4 4 4 5 6 6 6 6 6 6 7 7 7 7 7 7 7 6 6 6 5 5 5 5 5 5 6 6 6 7 7 8 9
6 6 6 7 7 7 6 6 5 4 4 3 2 2 2 2 3 3 3 4 4 5 6 6 6 7 8 9 10 10 10 8 6 5 4 3 3 4 4 5 6 6 6 6 6 7 7 7 7 7 7 7 7 6 6 5 5 5 5 5 5 5 6 7 7 8 8 9 10
6 7 7 7 7 7 6 6 5 5 4 4 3 3 3 3 4 4 4 5 5 6 6 6 6 7 9 10 10 10 8 6 5 4 3 3 3 4 5 6 6 7 7 7 7 7 7 8 7 7 7 7 6 6 6 5 5 5 5 5 5 6 6 7 8 8 9 9 10
7 7 7 8 7 7 7 6 6 5 5 4 4 4 4 4 5 5 5 6 6 5 5 6 7 9 10 11 10 8 7 5 4 3 3 3 4 4 5 6 7 7 7 7 8 8 8 8 8 7 7 7 6 6 5 5 5 5 5 5 6 6 7 8 8 9 9 9 10
6 7 7 8 7 7 7 7 6 6 5 5 5 5 5 5 5 5 6 5 5 5 5 6 8 10 10 10 8 7 5 4 3 3 3 3 4 5 6 7 7 7 8 8 8 8 8 8 7 7 7 6 6 6 5 5 5 5 5 6 6 7 8 8 8 9 9 10 12
6 7 7 8 8 8 7 7 6 6 6 6 5 5 5 6 6 6 5 4 4 5 6 7 10 11 10 9 7 5 4 3 3 3 3 4 5 6 7 7 8 8 8 8 8 8 8 8 7 7 6 6 6 5 5 5 5 5 6 6 7 7 8 9 9 9 10 11 12
7 7 8 8 8 8 8 7 7 6 6 6 6 6 6 6 5 5 4 4 4 6 7 9 10 10 9 7 5 4 3 3 2 3 3 4 6 7 7 8 8 8 9 9 9 8 8 7 7 6 6 6 5 5 5 5 6 6 6 7 7 8 8 9 9 10 11 11 11
7 7 8 8 8 8 8 7 7 7 6 6 6 6 6 5 5 4 4 4 5 7 9 10 10 9 7 6 4 3 3 2 2 3 4 6 7 8 8 9 9 9 9 9 8 8 8 7 6 6 6 6 5 5 5 5 6 6 7 7 8 9 9 9 10 11 11 12 12
7 7 8 8 8 8 8 7 7 7 6 6 6 6 5 5 4 4 4 5 6 8 10 11 9 7 6 4 4 3 2 2 3 4 5 7 8 9 9 9 9 9 9 8 8 7 7 6 6 6 6 5 5 5 5 6 6 6 7 8 9 9 10 10 11 11 11 12 13
8 8 8 8 8 8 8 7 7 6 6 6 5 5 5 4 4 4 5 6 8 10 10 10 8 6 4 3 3 2 2 3 4 5 7 8 9 9 9 9 9 9 8 8 7 7 6 6 6 6 6 5 5 5 5 6 6 7 7 8 9 10 10 11 12 12 12 12 13
8 8 9 9 8 8 7 7 6 6 6 5 5 4 4 4 4 4 6 8 10 11 10 8 6 5 4 3 2 2 3 4 5 7 8 9 9 10 10 9 9 8 8 7 7 6 6 6 6 6 6 5 5 6 6 6 6 7 8 9 9 10 11 12 12 13 13 13 12
9 9 9 9 8 7 7 6 6 5 5 5 4 4 4 4 4 6 8 10 11 10 8 6 5 4 3 2 2 3 4 5 7 8 9 10 10 10 10 9 8 8 7 7 6 6 6 6 6 6 6 5 6 6 6 6 7 8 9 9 10 11 12 12 12 12 12 13 12
10 9 9 8 7 7 6 6 5 5 5 4 4 4 4 4 6 8 10 10 10 8 7 5 4 3 2 2 2 4 5 7 8 10 10 10 10 10 9 8 8 7 7 6 6 6 6 6 6 6 6 6 6 6 6 6 7 8 9 10 11 11 12 12 12 12 12 12 12
10 9 8 7 7 6 6 5 5 5 4 4 4 4 4 6 8 10 10 10 8 7 5 4 2 2 2 2 4 5 7 9 10 10 10 10 10 9 8 8 7 6 6 6 6 6 6 6 6 6 6 6 6 6 7 7 8 8 9 10 11 11 12 12 12 12 12 12 11
9 8 7 7 6 6 6 5 5 4 4 4 4 5 6 8 10 10 10 9 7 5 4 2 2 2 2 4 5 7 9 10 11 11 10 10 9 8 7 7 6 6 6 6 6 6 6 6 6 6 6 6 6 6 7 8 8 9 9 10 11 11 12 12 12 12 12 12 11
8 7 7 7 6 6 5 5 4 4 4 4 5 6 8 10 10 10 8 7 5 4 3 2 2 3 4 5 7 9 10 11 11 11 10 9 8 7 7 6 6 6 6 6 6 6 6 6 6 6 6 6 6 7 7 8 9 9 10 10 11 11 12 13 13 12 12 11 11
7 7 6 6 6 5 5 4 4 4 4 5 7 9 10 11 10 8 6 5 4 3 2 2 3 4 6 8 10 11 11 11 10 9 8 7 7 6 6 6 6 6 6 6 6 6 6 6 6 6 6 6 7 7 8 9 10 10 11 11 11 11 12 12 13 13 12 11 11
6 6 6 6 5 4 4 4 4 5 6 7 9 10 11 10 8 6 5 4 3 2 2 3 4 6 8 10 11 12 11 10 9 8 7 7 6 6 6 6 6 6 6 6 6 6 6 6 7 7 7 7 7 8 9 10 11 11 12 12 13 12 12 12 12 12 12 11 10
6 6 5 4 4 4 5 5 6 7 8 10 10 10 9 7 6 4 4 3 2 3 3 5 6 9 10 12 12 11 10 9 8 7 7 6 6 6 6 6 6 6 6 6 6 6 6 6 7 8 8 8 9 9 9 10 11 12 13 13 13 13 13 12 11 11 10 10 10
5 5 5 4 5 5 6 6 8 9 10 11 10 9 7 5 4 4 3 2 3 4 5 7 9 11 12 12 11 10 8 7 7 6 6 6 6 6 6 6 6 6 6 6 6 6 6 7 8 8 9 9 10 10 10 11 11 12 13 13 13 13 13 12 11 10 10 10 10
5 5 5 5 6 7 8 9 10 11 10 9 8 6 5 4 4 3 3 3 4 6 8 10 11 12 12 11 10 8 7 6 6 6 6 6 6 6 6 6 6 6 6 6 6 7 7 8 8 9 10 10 10 10 11 12 12 12 13 13 13 12 12 11 11 10 10 10 9
6 6 6 7 8 10 11 11 11 10 9 7 6 5 4 4 4 4 4 5 7 9 10 12 12 12 11 9 8 7 6 6 6 6 6 6 6 6 6 6 6 6 7 7 7 7 8 9 9 10 11 11 11 11 11 12 12 12 13 13 13 12 12 11 10 10 10 10 10
7 8 9 10 11 12 11 10 9 8 7 6 5 5 4 4 4 5 6 8 10 11 12 12 11 10 9 7 6 6 6 6 6 6 6 6 6 6 6 6 7 7 7 7 8 8 9 10 10 11 11 11 11 11 12 12 13 13 12 12 12 12 11 10 10 10 10 10 10
10 11 12 12 12 10 9 8 7 6 6 6 5 5 5 5 6 7 9 10 11 12 12 11 10 8 7 6 6 6 6 6 6 6 6 6 6 6 6 6 7 7 8 8 9 9 10 11 11 12 12 12 12 12 12 13 13 12 12 12 12 11 11 10 10 10 10 11 11
13 13 12 11 9 8 7 7 6 6 6 5 5 5 6 7 8 10 11 12 12 11 10 9 8 7 6 6 6 6 6 6 6 6 6 6 6 6 6 7 8 8 9 9 10 10 11 12 12 12 13 12 12 12 12 13 12 12 12 12 11 11 11 10 10 11 11 11 12
12 10 9 8 7 7 7 7 6 6 6 6 6 6 7 9 10 11 11 11 10 9 8 7 6 6 5 5 5 5 6 6 6 6 6 7 7 7 7 8 9 9 10 10 11 11 12 12 13 13 13 12 12 12 12 12 12 12 11 11 11 11 11 11 11 11 11 12 12
8 7 6 7 7 7 7 6 6 6 6 6 7 8 9 10 10 10 10 9 8 8 7 6 6 5 5 5 5 5 6 6 6 6 7 7 7 7 8 8 9 10 11 12 12 12 13 13 13 13 13 12 12 12 12 12 11 11 11 10 10 11 11 11 11 12 12 13 13
5 5 6 6 6 6 6 5 5 6 6 7 8 8 9 10 10 9 9 8 7 7 6 5 5 5 5 5 5 6 6 6 7 7 7 7 7 8 8 9 10 11 12 13 13 13 13 14 14 13 13 12 12 12 12 12 11 10 10 10 10 11 11 11 12 12 13 13 13
4 5 5 5 5 5 5 5 5 6 6 7 8 8 9 9 9 8 8 7 6 6 5 5 4 5 5 5 6 6 6 7 7 7 7 8 8 9 9 10 11 12 13 14 14 14 14 14 14 13 13 12 11 11 11 11 11 10 10 10 11 11 12 12 12 12 13 14 14
4 4 3 3 3 4 4 4 5 6 7 7 8 8 8 8 8 8 7 7 6 5 5 4 4 5 5 6 6 6 7 7 7 8 8 9 9 10 10 10 12 13 14 14 14 14 14 14 14 13 13 12 11 11 11 10 10 10 10 11 11 11 12 12 12 13 14 15 15
2 2 2 2 2 3 4 5 6 6 7 7 8 8 8 8 8 7 6 6 5 5 4 4 5 6 6 6 7 7 7 7 8 8 9 10 10 11 11 11 12 14 15 15 15 14 14 14 13 13 13 12 11 11 10 10 10 10 11 11 11 11 12 13 13 13 14 15 15
1 1 1 1 2 3 4 5 6 7 7 8 8 8 8 8 7 6 5 5 5 5 5 5 6 6 7 7 7 7 7 8 9 9 10 10 11 12 12 13 13 14 15 16 15 14 14 13 13 13 13 12 11 11 10 10 10 10 11 12 11 11 11 13 14 14 14 15 15
-0 -0 0 1 2 4 5 6 7 8 8 9 9 8 8 7 6 5 5 5 5 5 6 6 6 7 7 7 7 8 8 8 9 10 11 11 12 13 13 14 14 14 15 16 15 14 14 13 13 13 13 12 11 11 10 10 10 10 11 12 11 11 11 12 14 15 15 15 15
Height
3145 3145 3144 3144 3144 3144 3144 3144 3144 3144 3144 3144 3144 3144 3144 3143 3143 3142 3142 3141 3141 3140 3140 3139 3138 3137 3136 3136 3135 3134 3133 3132 3131 3130 3129 3128 3127 3126 3125 3124 3123 3122 3121 3120 3119 3117 3116 3115 3114 3113 3111 3110 3109 3108 3107 3106 3105 3103 3102 3101 3100 3098 3097 3095 3094 3092 3091 3089 3087
3143 3143 3143 3143 3143 3143 3143 3143 3143 3142 3142 3142 3142 3142 3142 3141 3141 3141 3140 3140 3139 3139 3138 3137 3136 3136 3135 3134 3133 3132 3131 3130 3129 3128 3127 3126 3125 3124 3123 3122 3121 3120 3118 3117 3116 3115 3114 3113 3111 3111 3109 3108 3107 3106 3104 3103 3102 3101 3100 3098 3097 3095 3094 3092 3091 3089 3088 3086 3084
3141 3141 3141 3141 3141 3141 3141 3141 3141 3141 3141 3141 3141 3140 3140 3140 3139 3139 3139 3138 3137 3137 3136 3136 3135 3134 3133 3132 3131 3130 3129 3128 3127 3126 3125 3124 3123 3122 3121 3120 3118 3117 3116 3115 3114 3113 3112 3111 3109 3108 3107 3106 3104 3103 3102 3101 3100 3098 3097 3096 3094 3093 3091 3090 3088 3086 3085 3083 3081
3140 3140 3140 3140 3140 3140 3140 3140 3140 3139 3139 3139 3139 3139 3138 3138 3137 3137 3137 3136 3136 3135 3134 3134 3133 3132 3131 3130 3129 3128 3127 3126 3125 3124 3123 3122 3121 3120 3119 3117 3116 3115 3114 3113 3111 3111 3109 3108 3107 3106 3104 3103 3102 3101 3099 3098 3097 3096 3094 3093 3091 3090 3088 3086 3085 3083 3081 3080 3078
3138 3138 3138 3138 3138 3138 3138 3138 3138 3138 3137 3137 3137 3137 3136 3136 3136 3135 3135 3134 3134 3133 3132 3132 3131 3130 3129 3128 3127 3126 3125 3124 3123 3122 3121 3120 3119 3118 3116 3115 3114 3113 3111 3110 3109 3108 3107 3106 3104 3103 3102 3101 3099 3098 3097 3096 3094 3093 3091 3090 3088 3087 3085 3083 3082 3080 3078 3077 3075
3137 3137 3137 3137 3136 3136 3136 3136 3136 3136 3136 3136 3135 3135 3135 3134 3134 3133 3133 3133 3132 3131 3130 3130 3129 3128 3127 3126 3125 3124 3123 3122 3121 3120 3119 3118 3117 3116 3114 3113 3112 3110 3109 3108 3106 3106 3104 3103 3102 3101 3099 3098 3096 3095 3094 3093 3091 3090 3089 3087 3086 3084 3082 3080 3079 3077 3075 3073 3072
3135 3135 3135 3135 3135 3135 3135 3134 3134 3134 3134 3134 3134 3133 3133 3132 3132 3131 3131 3131 3130 3129 3128 3127 3126 3126 3125 3124 3123 3122 3121 3120 3119 3118 3117 3116 3114 3113 3112 3111 3109 3108 3106 3105 3104 3103 3101 3101 3099 3098 3096 3095 3094 3092 3091 3090 3089 3087 3086 3085 3083 3081 3079 3077 3075 3073 3072 3070 3068
3134 3133 3133 3133 3133 3133 3133 3133 3132 3132 3132 3132 3132 3131 3131 3131 3130 3130 3129 3128 3128 3127 3126 3125 3124 3123 3122 3121 3121 3120 3119 3118 3116 3116 3115 3113 3112 3111 3110 3108 3107 3106 3104 3103 3101 3100 3099 3098 3096 3095 3094 3093 3091 3090 3088 3087 3086 3084 3083 3081 3080 3078 3076 3074 3072 3070 3068 3067 3065
3132 3132 3132 3131 3131 3131 3131 3131 3131 3131 3130 3130 3130 3129 3129 3128 3128 3127 3127 3126 3125 3124 3123 3123 3122 3121 3120 3119 3118 3117 3116 3115 3114 3113 3112 3111 3110 3108 3107 3106 3105 3103 3101 3100 3099 3098 3096 3095 3094 3093 3091 3090 3089 3087 3086 3084 3083 3081 3080 3079 3077 3075 3073 3071 3069 3067 3065 3063 3061
3130 3130 3130 3130 3130 3130 3129 3129 3129 3129 3128 3128 3128 3127 3127 3126 3126 3125 3125 3124 3123 3122 3121 3120 3119 3118 3117 3116 3116 3115 3114 3113 3112 3111 3110 3108 3107 3106 3105 3103 3102 3101 3099 3098 3096 3095 3094 3093 3091 3090 3089 3087 3086 3084 3083 3081 3080 3078 3077 3075 3074 3072 3070 3068 3066 3063 3061 3060 3058
3128 3128 3128 3128 3128 3128 3127 3127 3127 3127 3126 3126 3126 3125 3125 3124 3124 3123 3122 3121 3121 3120 3119 3118 3117 3116 3115 3114 3113 3112 3111 3110 3109 3108 3107 3106 3105 3104 3102 3101 3100 3098 3097 3095 3094 3093 3091 3090 3089 3088 3086 3085 3083 3081 3080 3078 3077 3075 3073 3072 3070 3068 3066 3064 3062 3060 3058 3056 3054
3127 3126 3126 3126 3126 3126 3126 3125 3125 3125 3124 3124 3124 3123 3122 3122 3121 3121 3120 3119 3118 3117 3116 3115 3114 3113 3112 3111 3111 3110 3109 3108 3107 3106 3105 3103 3102 3101 3100 3098 3097 3096 3094 3093 3091 3090 3089 3087 3086 3085 3083 3082 3080 3078 3076 3075 3073 3072 3070 3068 3067 3065 3063 3061 3059 3056 3055 3052 3051
3125 3125 3125 3124 3124 3124 3124 3123 3123 3123 3122 3122 3121 3121 3120 3120 3119 3118 3117 3116 3116 3115 3114 3113 3112 3111 3110 3109 3108 3107 3106 3105 3104 3103 3102 3101 3100 3098 3097 3096 3094 3093 3091 3090 3089 3087 3086 3085 3083 3082 3081 3079 3077 3075 3073 3072 3070 3068 3067 3065 3063 3061 3059 3057 3055 3053 3051 3049 3047
3123 3123 3123 3122 3122 3122 3122 3121 3121 3121 3120 3120 3119 3119 3118 3117 3116 3116 3115 3114 3113 3112 3111 3110 3109 3108 3107 3106 3106 3105 3104 3103 3102 3101 3100 3098 3097 3096 3094 3093 3091 3090 3089 3087 3086 3085 3083 3081 3080 3079 3077 3076 3074 3072 3070 3068 3066 3065 3063 3061 3060 3058 3056 3054 3051 3049 3047 3045 3043
3121 3121 3121 3121 3120 3120 3120 3119 3119 3119 3118 3118 3117 3116 3116 3115 3114 3113 3112 3112 3111 3110 3109 3108 3107 3106 3105 3104 3103 3102 3101 3100 3099 3098 3097 3096 3094 3093 3091 3090 3089 3087 3086 3085 3083 3081 3080 3078 3077 3075 3074 3072 3071 3069 3067 3065 3063 3061 3059 3057 3056 3054 3052 3050 3048 3046 3044 3042 3040
3119 3119 3119 3118 3118 3118 3117 3117 3117 3116 3116 3116 3115 3114 3113 3113 3112 3111 3110 3109 3108 3107 3106 3106 3104 3103 3102 3101 3101 3100 3099 3098 3097 3096 3094 3093 3091 3090 3089 3087 3086 3085 3083 3082 3080 3078 3077 3075 3073 3072 3070 3068 3067 3065 3063 3061 3060 3058 3056 3054 3052 3050 3048 3046 3044 3042 3040 3038 3036
3116 3116 3116 3116 3116 3116 3115 3115 3115 3114 3114 3113 3112 3112 3111 3110 3110 3109 3108 3107 3106 3105 3104 3103 3102 3101 3100 3099 3098 3097 3096 3095 3094 3093 3091 3090 3089 3087 3086 3085 3083 3082 3080 3079 3077 3076 3074 3072 3070 3068 3066 3065 3063 3061 3059 3058 3056 3054 3052 3050 3048 3046 3044 3042 3040 3038 3036 3034 3032
3115 3114 3114 3114 3114 3113 3113 3113 3112 3112 3111 3111 3110 3110 3109 3108 3107 3106 3106 3105 3104 3103 3101 3101 3100 3099 3098 3096 3096 3095 3094 3092 3091 3090 3089 3087 3086 3085 3083 3082 3081 3079 3077 3076 3074 3072 3071 3069 3067 3065 3063 3061 3059 3057 3056 3054 3052 3050 3048 3047 3045 3043 3041 3039 3037 3035 3033 3031 3029
3112 3112 3112 3112 3111 3111 3111 3111 3110 3110 3109 3109 3108 3107 3106 3106 3105 3104 3103 3102 3101 3100 3099 3098 3097 3096 3095 3094 3093 3092 3091 3090 3089 3087 3086 3085 3083 3082 3081 3079 3077 3076 3074 3072 3071 3069 3067 3065 3063 3061 3060 3057 3056 3054 3052 3050 3048 3046 3045 3043 3041 3039 3037 3036 3033 3031 3030 3028 3026
3111 3110 3110 3110 3110 3109 3109 3108 3108 3107 3107 3106 3106 3105 3104 3103 3102 3101 3101 3100 3099 3098 3096 3096 3095 3094 3092 3091 3091 3089 3088 3087 3086 3084 3083 3081 3080 3079 3077 3076 3074 3073 3071 3069 3067 3065 3064 3062 3060 3058 3056 3054 3052 3050 3048 3046 3045 3043 3041 3040 3038 3036 3034 3032 3031 3028 3026 3025 3023
3108 3108 3108 3108 3107 3107 3106 3106 3106 3105 3105 3104 3103 3102 3102 3101 3100 3099 3098 3097 3096 3095 3094 3093 3092 3091 3090 3089 3088 3087 3086 3084 3083 3081 3080 3079 3077 3076 3074 3073 3071 3069 3067 3066 3064 3062 3060 3058 3056 3055 3052 3051 3049 3047 3045 3043 3041 3040 3038 3036 3035 3033 3031 3029 3027 3026 3024 3021 3020
3106 3106 3106 3106 3105 3105 3105 3104 3103 3103 3102 3101 3101 3100 3099 3098 3097 3096 3096 3095 3094 3093 3092 3091 3090 3089 3088 3086 3086 3084 3083 3081 3080 3079 3077 3076 3074 3073 3071 3070 3068 3066 3064 3062 3060 3058 3056 3055 3053 3051 3049 3047 3045 3043 3041 3040 3038 3036 3035 3033 3031 3030 3028 3026 3024 3022 3021 3019 3017
3104 3104 3104 3103 3103 3103 3102 3102 3101 3101 3100 3099 3098 3098 3097 3096 3095 3094 3093 3092 3091 3090 3089 3088 3087 3086 3085 3084 3083 3081 3080 3079 3077 3076 3074 3073 3071 3069 3068 3066 3064 3063 3061 3059 3057 3055 3053 3051 3049 3047 3046 3043 3041 3040 3038 3036 3035 3033 3031 3030 3028 3026 3025 3023 3021 3019 3017 3015 3013
3102 3101 3101 3101 3101 3101 3100 3100 3099 3098 3098 3097 3096 3095 3094 3093 3092 3091 3091 3089 3088 3087 3086 3085 3084 3083 3082 3081 3080 3079 3077 3076 3074 3073 3071 3070 3068 3066 3064 3063 3061 3059 3057 3055 3053 3051 3050 3048 3046 3044 3042 3040 3038 3036 3035 3033 3031 3029 3028 3026 3025 3023 3021 3019 3018 3016 3014 3011 3010
3100 3099 3099 3099 3099 3098 3098 3097 3096 3096 3095 3094 3093 3093 3092 3091 3090 3089 3088 3087 3086 3085 3083 3082 3081 3080 3079 3078 3077 3076 3074 3073 3071 3070 3068 3066 3065 3063 3061 3060 3058 3056 3054 3052 3050 3048 3046 3044 3042 3040 3038 3036 3035 3033 3031 3029 3027 3026 3024 3022 3020 3019 3017 3015 3014 3012 3010 3008 3006
3097 3097 3097 3097 3096 3096 3096 3095 3094 3093 3093 3092 3091 3090 3089 3088 3087 3086 3085 3084 3083 3082 3081 3079 3078 3077 3076 3075 3074 3073 3071 3070 3068 3066 3065 3063 3061 3060 3058 3056 3055 3053 3051 3049 3047 3045 3043 3041 3039 3036 3034 3032 3031 3029 3027 3025 3024 3022 3020 3018 3016 3014 3013 3011 3009 3008 3006 3004 3002
3095 3095 3095 3095 3094 3094 3093 3092 3092 3091 3090 3089 3089 3088 3087 3086 3085 3084 3083 3081 3080 3079 3078 3077 3076 3075 3073 3072 3071 3070 3068 3066 3065 3063 3061 3060 3058 3057 3055 3053 3051 3050 3047 3046 3043 3041 3040 3037 3036 3033 3031 3029 3026 3025 3023 3021 3020 3018 3016 3014 3012 3011 3009 3007 3005 3004 3002 3000 2998
3093 3093 3092 3092 3091 3091 3091 3090 3089 3088 3088 3087 3086 3085 3084 3083 3082 3081 3080 3079 3078 3076 3075 3074 3073 3072 3071 3069 3068 3066 3065 3063 3061 3060 3058 3056 3055 3053 3052 3050 3048 3046 3044 3042 3040 3038 3036 3034 3032 3030 3028 3025 3023 3021 3019 3018 3016 3014 3012 3011 3009 3007 3005 3003 3001 3000 2998 2996 2995
3091 3091 3090 3090 3089 3089 3088 3087 3087 3086 3085 3085 3084 3083 3082 3081 3080 3079 3077 3076 3075 3074 3072 3071 3070 3069 3068 3066 3065 3063 3061 3060 3058 3056 3055 3053 3051 3050 3049 3047 3045 3043 3041 3039 3037 3035 3033 3031 3029 3027 3025 3022 3020 3018 3016 3014 3012 3011 3009 3007 3005 3004 3002 3000 2998 2996 2995 2993 2991
3088 3088 3088 3087 3087 3086 3086 3085 3084 3084 3083 3082 3081 3081 3079 3078 3077 3076 3075 3074 3072 3071 3070 3069 3067 3066 3065 3063 3061 3060 3058 3057 3055 3053 3051 3050 3048 3047 3045 3044 3042 3040 3038 3036 3033 3031 3029 3027 3026 3023 3021 3019 3016 3014 3012 3011 3009 3007 3005 3004 3002 3000 2998 2997 2995 2993 2991 2989 2988
3086 3086 3086 3085 3085 3084 3083 3083 3082 3081 3081 3080 3079 3078 3077 3076 3075 3073 3072 3071 3070 3068 3067 3066 3064 3063 3061 3060 3058 3057 3055 3054 3052 3050 3049 3047 3045 3043 3042 3040 3038 3036 3034 3032 3030 3028 3026 3024 3022 3020 3018 3016 3013 3011 3009 3007 3006 3004 3002 3000 2999 2997 2995 2993 2992 2990 2988 2986 2984
3084 3084 3083 3083 3082 3082 3081 3081 3080 3079 3078 3077 3076 3076 3074 3073 3072 3071 3070 3068 3067 3065 3064 3063 3061 3060 3058 3057 3055 3054 3052 3051 3049 3047 3045 3044 3042 3040 3038 3037 3035 3033 3031 3029 3026 3024 3022 3020 3018 3016 3014 3012 3010 3007 3006 3004 3002 3000 2998 2997 2995 2994 2992 2990 2988 2987 2985 2983 2981
3082 3081 3081 3081 3080 3080 3079 3078 3078 3077 3076 3075 3074 3073 3071 3071 3069 3068 3066 3065 3064 3062 3061 3059 3058 3056 3055 3053 3052 3050 3049 3047 3046 3044 3042 3040 3038 3036 3035 3033 3031 3030 3027 3025 3023 3021 3019 3016 3014 3012 3010 3008 3006 3004 3002 3000 2998 2997 2995 2994 2992 2991 2989 2987 2986 2984 2982 2980 2978
3080 3079 3079 3079 3078 3077 3077 3076 3075 3074 3073 3072 3071 3070 3069 3068 3066 3065 3063 3062 3061 3059 3057 3056 3055 3053 3052 3050 3049 3047 3046 3044 3043 3041 3039 3037 3035 3033 3031 3030 3028 3026 3024 3021 3019 3017 3015 3013 3011 3009 3006 3004 3002 3000 2999 2997 2995 2993 2992 2990 2989 2987 2986 2984 2982 2981 2979 2977 2975
3078 3077 3077 3076 3076 3075 3074 3074 3073 3072 3071 3070 3068 3067 3066 3065 3063 3062 3060 3059 3057 3056 3054 3053 3051 3050 3048 3047 3046 3044 3042 3041 3039 3037 3036 3033 3031 3029 3027 3026 3024 3022 3020 3018 3015 3013 3011 3009 3007 3005 3003 3001 2998 2997 2995 2993 2991 2990 2988 2987 2986 2985 2983 2981 2979 2977 2976 2974 2972
3076 3076 3075 3074 3074 3073 3072 3071 3070 3069 3068 3067 3066 3064 3063 3061 3060 3058 3057 3055 3054 3052 3051 3049 3048 3046 3045 3043 3042 3040 3039 3037 3035 3034 3032 3030 3027 3025 3023 3022 3021 3019 3016 3014 3011 3009 3007 3005 3003 3001 2999 2997 2995 2993 2991 2990 2988 2986 2985 2984 2982 2981 2980 2978 2976 2974 2972 2971 2969
3074 3073 3073 3072 3071 3070 3069 3068 3067 3066 3065 3064 3062 3061 3059 3058 3056 3055 3053 3052 3050 3049 3047 3046 3045 3043 3041 3040 3038 3037 3035 3034 3032 3030 3028 3026 3024 3021 3019 3018 3016 3015 3013 3011 3008 3006 3004 3001 3000 2997 2995 2993 2991 2989 2988 2986 2985 2983 2982 2981 2979 2978 2976 2975 2973 2971 2969 2967 2966
3071 3071 3070 3069 3068 3067 3066 3066 3064 3063 3062 3060 3059 3058 3056 3055 3053 3051 3050 3048 3047 3045 3044 3043 3041 3040 3038 3036 3035 3033 3032 3030 3028 3026 3024 3022 3020 3018 3016 3014 3012 3011 3009 3007 3004 3002 3000 2998 2996 2994 2991 2990 2987 2986 2984 2982 2981 2979 2978 2977 2976 2974 2973 2971 2970 2968 2966 2964 2963
3069 3068 3068 3067 3066 3065 3064 3062 3061 3060 3058 3057 3056 3054 3053 3051 3050 3048 3047 3045 3044 3042 3041 3039 3038 3036 3035 3033 3031 3030 3028 3026 3025 3022 3020 3018 3016 3014 3012 3010 3008 3007 3006 3003 3001 2998 2996 2994 2992 2990 2988 2986 2984 2982 2981 2979 2977 2976 2975 2973 2972 2971 2969 2968 2966 2965 2963 2961 2960
3066 3066 3065 3064 3063 3061 3061 3059 3058 3056 3055 3054 3052 3051 3050 3048 3047 3045 3044 3042 3041 3039 3037 3036 3034 3033 3031 3030 3028 3026 3024 3023 3021 3019 3016 3014 3012 3010 3008 3006 3004 3003 3001 2999 2997 2995 2992 2991 2989 2987 2985 2983 2981 2979 2977 2975 2974 2972 2971 2970 2968 2967 2966 2964 2963 2962 2960 2959 2957
3064 3063 3062 3061 3060 3058 3057 3056 3054 3053 3052 3051 3049 3048 3046 3045 3044 3042 3041 3039 3037 3036 3034 3032 3031 3029 3028 3026 3024 3022 3020 3019 3017 3015 3013 3010 3008 3006 3004 3002 3000 2998 2997 2995 2993 2991 2989 2987 2985 2983 2981 2979 2977 2975 2973 2972 2970 2969 2967 2966 2965 2963 2962 2961 2959 2958 2957 2956 2954